sat.trackr.live / text

‹ back to catalog

STARLINK-37492

NORAD 68849 · 2026-094L

PAYLOAD ACTIVE UNKNOWN

§ Identity

Operator
Country
US
Launch date
2026-04-26
Launch site
AFWTR
Launch vehicle
Mass (kg)
RCS (m²)

Purposes: comms

External: N2YO · Heavens-Above · Gunter

§ Orbital elements

Epoch: 2026-09-20T00:31:11.748000Z

Period
93.90 min
Inclination
97.2840°
Eccentricity
0.0002029
Mean motion
15.33466691 rev/d
Perigee alt
464.1 km
Apogee alt
466.9 km
Semi-major
6,843.6 km
B*
5.7837e-4
RAAN
276.1392°
Arg perigee
87.7757°
Mean anomaly
272.3718°
Rev number
2,258

§ Raw data

STARLINK-374921 68849U 26094L   26263.02166375  .00018656  00000+0  57837-3 0  99932 68849  97.2840 276.1392 0002029  87.7757 272.3718 15.33466691 22582

JSON: /api/v1/satellites/68849 · /tle

For live sub-satellite position, see the globe view (requires WebGL).

§ Visibility from observer

Set your observer location to see the next 7 days of passes ≥ 10°. The values pass through the URL so the page stays shareable.

No JS? Fill the form by hand. The geolocation button needs JavaScript.